Miscellaneous Local Product
Issued by NWS North Platte, NE

Home | Current Version | Previous Version | Text Only | Print | Product List | Glossary On
Versions: 1 2 3 4 5 6 7 8 9 10 11 12 13 14 15 16 17 18 19 20 21 22 23 24 25 26 27 28 29 30 31 32 33 34 35 36 37 38 39 40 41 42 43 44 45 46 47 48 49 50
000
AXUS43 KLBF 052210
MISLBF


WESTERN AND NORTH CENTRAL NEBRASKA HOURLY WEATHER ROUNDUP
NATIONAL WEATHER SERVICE NORTH PLATTE NE
500 PM CDT SUN JUL 05 2015

***STATIONS NOT REPORTING VARIABLES SUCH AS SKY/WEATHER OR
PRESSURE ARE PROVIDED BY THE NEBRASKA DEPARTMENT OF
ROADS...RAWS...AND APRS NETWORKS...AND ARE NOT UNDER
NATIONAL WEATHER SERVICE QUALITY CONTROL***

...OBSERVATIONS IN AND NEAR THE EASTERN PANHANDLE OF NEBRASKA...

CITY           SKY/WX    TMP DP  RH WIND       PRES   REMARKS
PINE RIDGE     TSTM      77  71  82 NE12G18   29.84R
CHADRON        PTSUNNY   86  67  52 N20G33    29.85R
ALLIANCE       PTSUNNY   85  64  49 N13       29.83R
SIDNEY         CLOUDY    90  58  33 NW8       29.86S
WHITECLAY        N/A     78  67  69 NE9         N/A
CRESCENT LAKE    N/A     95  55  25 CALM        N/A  HX  93
BIG SPRINGS      N/A     97  68  38 E3          N/A  HX 102
$$

...OBSERVATIONS IN NORTH CENTRAL NEBRASKA...

CITY           SKY/WX    TMP DP  RH WIND       PRES   REMARKS
VALENTINE      MOSUNNY   94  65  38 SE9       29.75F HX  96
THEDFORD       SUNNY     92  69  46 S10       29.79F HX  97
AINSWORTH      MOSUNNY   93  69  44 S13G18    29.76F HX  98
O`NEILL        MOSUNNY   90  73  57 S13       29.78S HX  98
ORD            MOSUNNY   94  70  45 S14G21    29.75F HX 100
BROKEN BOW     MOSUNNY   93  70  46 S14G26    29.77F HX  99
VALENTINE NWR    N/A     95  67  39 S15         N/A  HX  98
SPRINGVIEW       N/A     97  72  44 S5G12       N/A  HX 105
HALSEY           N/A     89  67  48 S9G21       N/A  HX  92
BREWSTER         N/A     95  73  48 S18         N/A  HX 104
ROSE             N/A    101  82  54 S18         N/A  HX 126
NEWPORT          N/A     91  67  45 S10         N/A  HX  95
SARGENT          N/A     94  71  46 CALM        N/A  HX 100
CHAMBERS         N/A     91  71  51 S12G18      N/A  HX  97
EWING            N/A     89  77  68 S7          N/A  HX 102
$$

...OBSERVATIONS IN SOUTHWEST NEBRASKA AND FAR NORTHEAST COLORADO...

CITY           SKY/WX    TMP DP  RH WIND       PRES   REMARKS
WRAY           FAIR     103  43  13 S12       29.78F HX  98
HOLYOKE        FAIR      95  61  31 S3        29.80S HX  95
IMPERIAL       MOSUNNY  101  57  23 SE7       29.76F HX 100
OGALLALA       MOSUNNY   96  62  32 SE9       29.77S HX  96
NORTH PLATTE   PTSUNNY   96  66  37 SE8       29.76F HX  99
MCCOOK         MOSUNNY  103  54  19 S13       29.71F HX 101
LEXINGTON      SUNNY     99  64  32 S9        29.74F HX 101
PAXTON           N/A     98  64  32 SE8         N/A  HX 100
GOTHENBURG       N/A     96  62  32 SE3         N/A  HX  97
CALLAWAY         N/A     92  77  61 S9          N/A  HX 105
$$

...NORTH PLATTE AREA...

CITY           SKY/WX    TMP DP  RH WIND       PRES   REMARKS
AIRPORT        PTSUNNY   96  66  37 SE8       29.76F HX  99
DOWNTOWN         N/A     96  69  41 SE3G12      N/A  HX 101
HILLCREST        N/A     92  67  43 SE7         N/A  HX  95
$$

...SOME WEATHER OBSERVATIONS FROM AROUND THE REGION...

CITY           SKY/WX    TMP DP  RH WIND       PRES   REMARKS
DENVER         CLOUDY    87  49  26 NW15      29.95R
LARAMIE        LGT RAIN  57  54  89 NE15      30.18F
CHEYENNE       LGT RAIN  63  59  87 N7        30.12S FOG
SCOTTSBLUFF    CLOUDY    84  64  50 N20G29    29.86R
RAPID CITY     CLOUDY    77  64  64 N20G29    29.92R
PIERRE         CLOUDY    84  73  69 NE10      29.75F HX  90
WINNER         FAIR      95  67  39 SE8       29.73F HX  99
SIOUX FALLS    PTSUNNY   85  71  63 S13       29.80F HX  90
OMAHA          PTSUNNY   90  74  59 SE22G30   29.81F HX  99
GRAND ISLAND   SUNNY     95  73  48 SE14G22   29.76F HX 104
KANSAS CITY    PTSUNNY   88  75  65 SE15      29.91F HX  97
WICHITA        MOSUNNY   99  62  29 S21G28    29.84F HX 100
HAYS           SUNNY    100  55  22 S23G31    29.79F HX  99
LIBERAL        MOSUNNY   93  61  33 S23G29    29.89F HX  93
GOODLAND       MOSUNNY   97  51  21 S15G23    29.79F HX  94
$$



USA.gov is the U.S. government's official web portal to all federal, state and local government web resources and services.